星链-4642 (STARLINK-4642 )

导读

STARLINK-4642是美国SpaceX公司星链计划中的一颗卫星,于2022年9月5日发射升空。作为星链星座组网的一员,它主要用于为全球提供低延迟、高速率的宽带互联网服务,尤其覆盖偏远地区等网络基础设施薄弱区域,依托近地轨道部署,支撑全球卫星互联网的持续组网与服务拓展。

基本信息
目录编号:
53720
目录名称:
STARLINK-4642
国际标识:
2022-107W
轨道中心:
EARTH
卫星名称:
星链-4642
卫星全名:
星链-4642 (STARLINK-4642 )
卫星状态:
在轨 (已飞行1460 天)
发射日期:
2022-09-05 UTC
国别 :
美国 (US)
星等 :
--
轨道信息
数据来源 国际轨道数据
星历时间: 2026-09-04T02:32:32+0800
10小时前
查看轨道信息
半长轴: 6840.916km
偏心率: 0.00012
轨道倾角: 53.158°
近地点辐角 79.408°
升交点赤经 161.793°
平近点角 280.706°
近地点: 461.958km
远地点: 463.6km
周期: 93.849分钟
每日圈数: 15.343746
详细信息
固有亮度:
5
最大亮度:
2.5
卫星平台:
Starlink v1.5
覆盖范围:
全球
运营商:
太空探索技术公司
运营商所在国:
美国
制造商(研发单位):
太空探索技术公司
制造商所在国:
美国
使用方式:
暂无
卫星简介
星链(Starlink)计划是由太空探索技术公司(SpaceX)提出的一个巨型低轨卫星互联网星座项目,计划在2019年至2024年间在太空搭建由约1.2万颗卫星组成的“星链”网络,其中1584颗将部署在地球上空550千米处的近地轨道,并从2020年开始工作。该卫星仍在工作。
2D轨道图
3D轨道图
轨道高度分析图
轨道倾角分析图
轨道综合分析图
查看轨道综合分析图
交会数据列表
事件ID 空间交会对象 最接近时刻(TCA) 交会距离 交会风险概率(CRP) 交会风险指数(CRI) 操作
CDM_260904-173705-372006-501621
2026-09-04T
17:37:56+0000
0.435 km
远距离
1.04442E-4 高风险 0.75
CDM_260904-134805-372006-834721
2026-09-04T
13:48:15+0000
0.568 km
远距离
1.004181E-4 高风险 0.75
CDM_260904-191605-372006-568421
2026-09-04T
19:16:13+0000
0.576 km
远距离
9.420681E-5 中风险 0.74
CDM_260904-221304-944105-372021
2026-09-04T
22:13:49+0000
0.642 km
远距离
5.198482E-5 中风险 0.69
CDM_260903-225705-372006-834721
2026-09-03T
22:57:13+0000
0.824 km
远距离
3.285185E-5 中风险 0.65
CDM_260904-103004-944105-372021
2026-09-04T
10:30:20+0000
0.811 km
远距离
2.484573E-5 中风险 0.63
CDM_260904-132205-372006-426921
2026-09-04T
13:22:52+0000
1.035 km
极远距离
2.080962E-5 中风险 0.61
CDM_260904-085604-944105-372021
2026-09-04T
08:56:32+0000
0.925 km
远距离
1.597055E-5 中风险 0.59
CDM_260904-204004-944105-372021
2026-09-04T
20:40:01+0000
1.027 km
极远距离
1.113011E-5 中风险 0.56
CDM_260904-012104-926105-372021
CS1 (49261)
2026-09-04T
01:21:30+0000
1.386 km
极远距离
8.556553E-6 低风险 0.54